Flag for Argentina Weather past 2 weeks in Salta, Salta, Argentina

Now
57 °F

Mostly cloudy.


Feels Like: 57 °F
Forecast: N/A
Wind: 2 mph from Northeast

Location: Salta Aerodrome

Current Time: Dec 22, 2014 at 6:28:00 PM

Latest Report: Dec 22, 2014 at 5:00 PM


Visibility: 5 mi

Pressure: 30.18 "Hg

Humidity: 77%

Dew point: 50 °F

Location of SaltaLocation

Historic Weather in Salta — Graph

°F

Salta temperature yesterday

Maximum temperature yesterday: 72 °F (at 12:00 AM)
Minimum temperature yesterday: 57 °F (at 9:00 PM)
Average temperature yesterday: 65 °F

Past Weeks' High & Low Weather Summary

 TemperatureHumidityPressure
High90 °F (Dec 7, 5:00 PM)100% (Dec 11, 3:00 AM)30.24 "Hg (Dec 11, 3:00 AM)
Low54 °F (Dec 22, 4:00 AM)27% (Dec 7, 5:00 PM)29.53 "Hg (Dec 20, 6:00 PM)
Average69 °F79%29.97 "Hg
* Reported Dec 7 5:00 PM — Dec 22 5:00 PM, Salta, Weather by CustomWeather, © 2014

Note: Actual official high and low records may vary slightly from our data, if they occured in-between our weather recording intervals... More about our weather records

Advertising

Salta weather history for previous 24 hours

 ConditionsComfort  
Time TempWeatherWind HumidityBarometerVisibility
5:00 PM
Dec 22
57 °FMostly cloudy.2 mph77%30.18 "Hg5 mi
4:00 PM57 °FMostly cloudy.5 mph77%30.18 "HgN/A
3:00 PM57 °FMore clouds than sun.6 mph72%30.18 "HgN/A
2:00 PM57 °FMore clouds than sun.5 mph72%30.21 "HgN/A
12:00 PM55 °FLow clouds.9 mph77%30.24 "HgN/A
11:00 AM54 °FLow clouds.10 mph82%30.24 "Hg5 mi
10:00 AM55 °FLow clouds.9 mph82%30.24 "Hg5 mi
9:00 AM54 °FLow clouds.8 mph88%30.24 "Hg5 mi
8:00 AM54 °FDrizzle. Low clouds.7 mph88%30.21 "Hg3 mi
7:00 AM54 °FDrizzle. Cloudy.2 mph94%30.18 "Hg1 mi
6:35 AM54 °FLight rain. Cloudy.5 mph100%30.18 "Hg1 mi
6:00 AM54 °FDrizzle. Mostly cloudy.5 mph100%30.15 "Hg4 mi
5:00 AM54 °FDrizzle. Mostly cloudy.5 mph100%30.15 "Hg4 mi
4:00 AM54 °FDrizzle. Mostly cloudy.5 mph100%30.12 "Hg4 mi
3:00 AM55 °FDrizzle. Mostly cloudy.5 mph94%30.12 "Hg4 mi
2:00 AM55 °FMostly cloudy.5 mph94%30.12 "HgN/A
1:00 AM55 °FDrizzle. Mostly cloudy.6 mph100%30.12 "Hg4 mi
12:00 AM57 °FDrizzle. Mostly cloudy.7 mph94%30.09 "Hg4 mi
11:00 PM
Dec 21
57 °FDrizzle. Mostly cloudy.5 mph88%30.09 "Hg4 mi
10:00 PM57 °FDrizzle. Mostly cloudy.6 mph94%30.04 "Hg4 mi
9:00 PM57 °FDrizzle. Mostly cloudy.6 mph94%30.01 "Hg4 mi
8:00 PM59 °FDrizzle. Mostly cloudy.2 mph94%29.95 "Hg2 mi
7:00 PM63 °FRain. Mostly cloudy.2 mph77%29.89 "Hg1 mi
6:00 PM64 °FPartly sunny.9 mph68%29.86 "Hg5 mi
Weather by CustomWeather, © 2014

See weather overviewHow to use our weather pages